Content
SEND FEEDBACK

Daily
Averages
Monthly
Summary
Turkmenistan

ASHGABAT, TURKMENISTAN


Home > Asia > Turkmenistan
Elevation: 775 feet     Latitude: 37 58N     Longitude: 058 20E

WEATHER
 
SELECT A DAY
Number of Records: 177,268;   Date Range: 3/15/97 - 7/29/14
 
SHARE

PRINT THIS DATA

[ ← Previous Day ]
WEATHER ALMANAC - JUNE 30, 2013
[ Next Day → ]
[ °C ]   °F
We're sorry. There is no daily almanac available for Ashgabat, Turkmenistan on June 30, 2013.
WEATHER BY HOUR - JUNE 30, 2013
[ °C ]   °F
Local TimeTemperatureDewpointHumidityBarometerVisibilityWind DirectionWind SpeedGust SpeedPrecipitationEventsConditions
1:00 AM82.4 °F46.4 °F28 %29.74 in6.2 miWSW (250°)6.7 mphScattered Clouds
1:30 AM80.6 °F46.4 °F30 %29.71 in6.2 miWSW (250°)6.7 mphScattered Clouds
2:00 AM78.0 °F54.0 °F33 %29.71 in6.0 miWSW (250°)8.9 mphScattered Clouds
2:00 AM80.6 °F46.4 °F30 %29.71 in6.2 miWSW (250°)8.9 mphScattered Clouds
3:00 AM77.0 °F48.2 °F36 %29.71 in6.2 miVariable2.2 mphPartly Cloudy
4:00 AM77.0 °F48.2 °F36 %29.71 in6.2 miCalmScattered Clouds
4:30 AM75.2 °F48.2 °F38 %29.74 in6.2 miWNW (300°)6.7 mphScattered Clouds
5:00 AM76.0 °F54.0 °F36 %29.73 in6.0 miWest (270°)6.7 mphMostly Cloudy
5:00 AM78.8 °F44.6 °F30 %29.74 in6.2 miWest (270°)6.7 mphMostly Cloudy
5:30 AM77.0 °F46.4 °F34 %29.74 in6.2 miWest (280°)8.9 mphMostly Cloudy
6:00 AM75.2 °F46.4 °F36 %29.74 in6.2 miWest (280°)6.7 mphMostly Cloudy
6:30 AM80.6 °F48.2 °F32 %29.77 in6.2 miWNW (290°)11.2 mphMostly Cloudy
7:00 AM78.8 °F48.2 °F34 %29.77 in6.2 miWest (280°)8.9 mphMostly Cloudy
7:30 AM80.6 °F50.0 °F34 %29.77 in6.2 miWNW (290°)11.2 mphMostly Cloudy
8:00 AM82.0 °F56.0 °F31 %29.75 in6.0 miWNW (300°)15.7 mphPartly Cloudy
8:00 AM82.4 °F51.8 °F35 %29.77 in6.2 miWNW (290°)15.7 mphScattered Clouds
8:30 AM84.2 °F51.8 °F33 %29.77 in6.2 miWNW (290°)13.4 mphScattered Clouds
9:00 AM86.0 °F50.0 °F29 %29.77 in6.2 miWNW (300°)13.4 mphScattered Clouds
10:00 AM89.6 °F50.0 °F26 %29.77 in6.2 miWNW (300°)11.2 mphScattered Clouds
11:00 AM91.4 °F48.2 °F23 %29.77 in6.2 miNW (320°)11.2 mphPartly Cloudy
11:00 AM91.0 °F57.0 °F22 %29.75 in6.0 miNW (310°)11.2 mphScattered Clouds
12:00 PM93.2 °F48.2 °F21 %29.74 in6.2 miNNW (330°)8.9 mphPartly Cloudy
1:00 PM95.0 °F46.4 °F19 %29.74 in6.2 miNW (310°)6.7 mphPartly Cloudy
2:00 PM96.0 °F42.0 °F8 %29.71 in6.0 miNW (310°)13.4 mphPartly Cloudy
2:00 PM96.8 °F42.8 °F16 %29.71 in6.2 miWNW (300°)8.9 mph20.1 mphScattered Clouds
3:00 PM96.8 °F41.0 °F15 %29.71 in6.2 miWNW (290°)8.9 mphScattered Clouds
3:30 PM98.6 °F41.0 °F14 %29.71 in6.2 miNorth (10°)8.9 mphMostly Cloudy
4:00 PM98.6 °F41.0 °F14 %29.71 in6.2 miNNW (340°)6.7 mphMostly Cloudy
5:00 PM98.6 °F41.0 °F14 %29.68 in6.2 miNNW (330°)6.7 mphMostly Cloudy
5:00 PM99.0 °F46.0 °F9 %29.67 in6.0 miNW (320°)6.7 mphPartly Cloudy
6:00 PM96.8 °F41.0 °F15 %29.68 in6.2 miWest (270°)8.9 mphScattered Clouds
7:00 PM96.8 °F41.0 °F15 %29.68 in6.2 miWest (280°)8.9 mphScattered Clouds
8:00 PM95.0 °F57.0 °F19 %29.66 in6.0 miWNW (290°)11.2 mphPartly Cloudy
8:00 PM95.0 °F41.0 °F15 %29.68 in6.2 miWNW (290°)8.9 mphScattered Clouds
9:00 PM91.4 °F44.6 °F20 %29.68 in6.2 miWest (270°)6.7 mphScattered Clouds
10:00 PM89.6 °F44.6 °F21 %29.71 in6.2 miWSW (250°)6.7 mphPartly Cloudy
11:00 PM84.0 °F52.0 °F23 %29.69 in6.0 miSW (220°)4.5 mph
11:00 PM84.2 °F46.4 °F27 %29.71 in6.2 miSW (220°)4.5 mphClear
Hourly data recorded from UTAA, located miles away from Ashgabat, Turkmenistan







STORIES FROM OUR PARTNERS